Wind_Speed
22 20 18 17 17 17 19 20 20 20 20 20 20 21 22 21 21 20 19 19 19 20 20 20 20 20 21 21 20 20 21 21 22 23 23 22 22 22 22 22 21 21 21 22
23 21 20 20 19 20 21 21 22 22 23 24 22 23 24 23 23 22 22 21 21 21 21 22 22 22 22 23 23 22 22 22 23 23 23 23 23 24 24 23 23 23 24 24
23 21 22 23 22 23 24 24 24 26 25 24 24 24 25 26 24 24 24 24 24 24 23 23 23 23 24 24 24 24 24 24 24 24 25 24 24 25 25 24 24 25 25 25
23 22 23 22 21 23 23 24 26 27 27 27 27 27 27 28 27 26 26 26 26 25 25 25 25 26 26 26 26 26 26 27 27 27 26 26 26 26 27 26 26 26 26 26
24 23 22 22 23 25 25 26 28 27 27 28 29 30 30 29 27 27 27 27 27 27 26 27 27 27 27 28 28 28 28 28 28 28 28 28 28 27 28 28 28 27 27 26
26 25 23 25 25 26 24 25 28 28 29 29 30 30 32 30 28 28 29 29 29 29 29 28 28 28 28 29 30 30 30 31 31 31 29 29 29 29 29 29 28 28 28 28
27 26 25 26 26 27 28 29 28 28 29 29 31 33 33 32 31 31 31 30 30 30 30 29 30 30 30 30 30 31 31 32 32 32 31 31 30 30 30 30 30 29 29 29
28 28 29 29 30 31 32 30 30 31 31 32 33 33 33 33 33 31 32 32 31 31 31 30 30 31 31 31 31 32 32 33 32 32 31 31 30 30 30 30 30 30 30 29
30 32 32 31 32 32 32 31 31 31 31 32 33 32 33 33 33 33 32 32 32 31 31 32 31 32 32 32 32 33 33 33 32 32 31 31 31 30 30 29 29 29 29 29
32 32 33 33 33 34 33 34 32 31 33 34 34 32 31 32 33 34 33 33 32 32 32 31 32 32 32 32 32 32 33 33 32 32 31 32 31 31 30 30 29 29 29 29
34 35 36 36 35 34 35 34 33 33 32 33 34 32 32 33 32 32 33 33 33 33 33 33 33 33 33 33 33 33 33 33 33 33 33 32 31 30 30 30 30 30 31 31
34 34 34 35 34 35 35 34 34 35 34 33 34 34 34 34 33 33 33 33 34 34 35 33 34 34 33 34 34 34 35 34 33 33 33 33 32 31 31 31 32 32 31 32
35 34 34 34 34 35 35 34 35 35 35 35 35 35 35 35 34 33 34 34 34 34 34 34 34 34 34 34 34 35 35 35 34 34 34 33 33 32 32 32 32 32 32 32
34 33 33 33 33 34 33 33 34 35 36 36 36 35 35 36 35 34 34 34 34 34 34 34 35 35 34 34 34 34 34 34 34 34 35 34 34 33 33 32 32 32 32 32
34 33 32 32 34 36 36 35 34 34 35 36 35 34 35 36 36 35 34 34 34 34 34 35 35 34 34 35 35 35 35 34 34 34 34 34 33 33 33 33 33 33 33 32
33 33 33 34 35 35 36 37 36 34 35 35 34 33 34 34 35 34 34 33 33 34 34 34 34 34 34 35 35 35 35 34 34 34 34 33 33 33 33 34 34 34 33 32
31 33 34 34 35 35 35 34 33 34 34 33 33 33 33 33 34 34 33 33 33 33 33 33 34 34 34 35 35 35 34 34 34 34 34 34 33 33 33 34 34 33 32 32
29 30 31 32 33 34 34 34 33 33 33 33 33 33 33 34 34 33 32 32 32 32 33 33 33 34 35 35 35 34 34 34 34 34 33 33 32 32 32 32 32 31 31 31
30 30 30 30 31 32 32 32 32 32 32 32 32 32 32 31 32 32 32 32 32 32 31 32 32 33 33 33 34 34 34 34 34 33 33 32 32 31 31 31 31 30 30 29
29 30 31 31 31 31 31 31 32 32 32 32 32 32 32 32 32 31 31 31 31 31 31 31 32 32 32 32 32 33 33 33 32 32 32 32 31 31 31 31 31 30 30 29
28 28 29 30 30 31 30 30 30 31 31 31 32 32 32 32 31 31 31 31 30 30 30 31 31 31 31 32 31 32 32 31 30 30 30 30 31 31 30 30 29 29 29 29
27 27 27 28 28 28 28 29 30 30 31 31 31 30 30 30 30 30 30 30 30 29 29 29 29 30 30 30 30 30 30 29 29 28 28 29 30 30 29 28 28 28 28 28
26 26 26 26 27 28 28 29 29 28 28 29 29 29 29 29 29 29 28 28 28 28 28 28 28 28 28 29 29 28 28 28 28 28 28 28 29 28 28 27 27 28 28 28
24 23 23 24 25 25 26 26 27 27 26 26 26 26 27 27 26 26 25 25 25 26 26 26 26 26 27 27 26 27 27 27 27 27 27 27 27 27 26 26 26 27 28 28
19 20 20 21 21 22 22 23 24 24 24 24 24 25 25 24 24 24 23 23 23 24 24 24 24 24 25 25 25 25 26 26 26 26 26 25 25 25 25 25 26 26 26 26
19 19 20 19 19 19 19 19 20 21 22 22 23 23 23 23 23 22 22 22 22 22 22 22 22 22 22 23 24 24 24 24 24 24 23 23 24 24 24 25 26 26 25 25
18 18 19 18 18 17 18 19 20 20 21 21 21 21 21 21 21 21 21 21 21 21 21 21 21 21 21 22 22 23 23 23 22 22 22 22 22 23 24 24 24 24 24 25
Wind_Direction
236 239 242 251 255 248 244 243 244 248 254 257 261 268 272 275 279 280 278 276 274 274 277 279 281 283 284 285 287 290 292 293 295 296 297 296 297 298 299 301 303 304 303 304
238 239 242 244 245 248 247 248 247 249 251 254 257 262 266 269 273 276 276 275 274 273 275 277 278 280 283 284 286 290 291 293 294 295 295 297 298 298 299 300 301 300 300 302
241 243 245 246 247 249 249 246 247 250 252 255 256 260 266 268 270 274 274 274 274 276 275 275 276 278 281 284 286 288 289 292 293 294 295 297 299 298 297 297 298 299 299 299
246 246 247 248 249 250 253 248 247 252 254 256 259 262 264 268 269 270 273 273 274 274 274 275 276 278 279 281 283 285 288 290 292 293 295 296 297 297 295 295 297 297 296 297
245 247 250 248 246 247 248 251 252 255 259 262 261 263 265 268 269 269 272 275 275 272 274 275 276 276 277 279 282 284 287 288 290 291 292 293 293 294 295 295 295 295 295 295
245 246 248 247 248 250 252 256 256 259 260 261 262 262 265 267 270 271 273 275 275 275 275 274 275 276 277 279 281 283 285 287 289 289 290 291 292 292 293 293 294 295 295 295
245 247 250 249 249 252 254 257 259 261 262 264 267 266 264 267 269 270 272 273 273 274 274 273 274 276 277 279 281 283 285 286 288 288 289 290 290 290 290 291 292 293 293 294
246 245 248 251 252 252 255 258 259 261 263 265 268 265 266 268 269 271 272 272 272 272 273 273 273 275 276 279 281 283 284 285 286 286 286 288 289 289 289 291 292 293 293 293
243 245 249 253 256 258 259 260 262 264 264 266 269 268 267 268 270 271 271 271 272 272 273 273 273 275 278 279 281 282 283 284 285 285 284 286 287 288 288 290 291 291 292 293
247 249 251 255 258 258 258 260 262 263 263 266 269 270 269 270 272 272 273 274 273 271 273 274 275 277 278 279 280 282 283 283 283 283 284 285 286 287 288 288 289 290 291 292
249 251 251 253 255 258 259 261 263 263 263 264 266 268 271 271 271 273 275 275 274 273 273 272 275 276 277 278 280 281 282 282 283 284 285 286 287 288 288 289 290 291 291 291
251 253 254 257 258 260 260 262 264 267 267 267 268 270 271 271 271 272 274 275 274 275 274 274 275 276 277 279 280 282 283 282 282 283 284 286 287 287 287 289 291 291 290 290
252 254 255 256 259 261 263 264 265 267 268 267 267 270 272 273 273 274 274 275 275 274 274 275 275 276 278 279 280 281 282 282 282 283 283 285 286 287 288 288 289 289 290 289
253 253 254 255 257 261 263 264 266 268 268 270 269 270 271 272 273 274 274 274 275 275 274 273 275 277 278 279 280 281 282 282 283 283 283 284 285 286 287 288 287 287 288 287
255 256 258 258 259 262 263 264 266 268 269 272 271 270 271 272 273 273 273 274 275 275 274 274 274 276 277 277 278 280 281 282 282 283 284 284 284 285 286 287 287 288 288 287
254 256 259 260 261 263 265 266 267 268 270 271 271 272 274 273 274 273 273 274 274 276 276 275 275 275 276 277 278 279 280 280 281 282 283 284 284 285 286 287 288 288 287 288
256 257 258 260 261 263 266 268 269 270 271 273 273 273 273 274 274 273 273 274 275 276 277 276 275 275 276 277 279 280 280 280 281 282 283 284 285 286 286 287 287 288 287 287
258 259 259 260 261 263 266 268 269 270 272 273 272 273 272 273 274 274 273 274 275 276 276 276 276 277 277 278 279 280 280 281 281 281 282 283 283 283 284 286 287 287 287 287
260 260 261 263 263 264 266 267 268 269 271 272 273 275 275 275 276 274 273 274 275 276 277 277 277 278 278 279 278 278 279 280 281 281 282 282 282 281 282 285 286 286 286 286
262 262 262 262 263 266 267 268 268 268 269 271 273 274 275 276 276 276 275 275 276 277 278 279 278 278 278 279 279 279 280 280 281 281 281 280 280 281 282 283 284 284 285 285
264 264 263 264 264 265 267 269 270 270 270 271 272 273 274 275 275 275 275 276 277 278 279 279 280 281 281 279 279 280 281 282 282 281 281 281 281 281 282 283 283 284 285 285
265 266 266 266 267 268 269 270 271 272 272 272 273 274 274 275 276 277 277 277 278 278 278 279 282 283 284 283 283 282 281 282 282 281 282 284 283 283 282 282 282 283 284 285
266 268 268 269 270 270 270 270 270 272 273 273 273 273 274 275 275 277 277 278 279 279 279 280 281 283 284 283 284 283 283 282 281 282 283 284 283 282 283 284 284 284 285 285
268 269 271 273 274 273 273 272 271 272 273 273 272 272 273 274 276 277 277 278 280 281 281 280 282 284 284 283 283 283 283 282 281 281 282 282 283 283 284 285 285 285 285 286
270 270 272 275 277 277 277 275 273 273 274 275 274 273 272 273 275 277 279 280 280 280 281 281 282 285 286 284 284 284 285 284 283 283 282 281 282 283 285 286 286 287 288 288
274 275 276 279 280 281 281 280 278 275 275 277 277 275 273 273 275 277 279 279 279 280 281 282 283 284 286 287 286 285 285 285 284 283 283 282 282 284 285 285 286 288 289 288
278 278 278 278 279 280 282 283 282 280 279 281 281 278 276 275 277 278 279 279 278 280 281 282 283 285 287 288 288 286 285 284 284 282 282 283 285 286 286 286 287 288 287 287
Height
5869 5871 5872 5874 5876 5877 5878 5880 5881 5882 5882 5881 5881 5881 5879 5879 5879 5879 5879 5879 5879 5879 5878 5877 5877 5876 5875 5874 5873 5872 5871 5870 5869 5867 5866 5864 5862 5860 5859 5857 5856 5854 5853 5851
5864 5866 5867 5869 5871 5873 5874 5874 5875 5875 5876 5875 5875 5874 5873 5874 5874 5874 5874 5874 5874 5874 5873 5873 5872 5871 5870 5869 5868 5867 5866 5865 5863 5862 5860 5859 5857 5855 5853 5852 5850 5849 5847 5845
5858 5860 5861 5863 5866 5866 5866 5867 5869 5868 5869 5869 5868 5868 5868 5867 5868 5868 5868 5868 5868 5868 5868 5867 5867 5866 5865 5864 5863 5862 5861 5859 5858 5856 5854 5852 5851 5849 5848 5846 5844 5843 5841 5839
5852 5854 5855 5859 5860 5860 5859 5860 5861 5860 5861 5862 5862 5861 5862 5861 5862 5862 5862 5861 5862 5862 5862 5861 5861 5860 5859 5858 5858 5856 5855 5854 5852 5850 5848 5847 5845 5843 5842 5840 5838 5836 5835 5833
5846 5848 5849 5852 5852 5852 5853 5853 5854 5854 5855 5856 5855 5855 5854 5854 5855 5856 5854 5854 5854 5853 5854 5854 5854 5853 5852 5852 5851 5850 5848 5847 5845 5844 5842 5840 5839 5837 5835 5833 5831 5830 5828 5826
5839 5841 5843 5845 5844 5845 5847 5846 5846 5847 5847 5848 5848 5849 5848 5847 5847 5848 5848 5848 5847 5846 5846 5847 5847 5846 5845 5844 5844 5842 5841 5840 5838 5836 5834 5833 5831 5830 5828 5826 5824 5822 5821 5819
5833 5834 5835 5836 5837 5839 5841 5840 5839 5839 5840 5840 5840 5841 5840 5839 5840 5839 5840 5840 5840 5839 5839 5839 5839 5838 5837 5836 5835 5834 5833 5831 5829 5828 5826 5825 5823 5822 5820 5818 5816 5815 5813 5811
5825 5827 5828 5828 5830 5831 5832 5831 5831 5832 5833 5832 5832 5831 5831 5832 5832 5832 5832 5832 5831 5831 5831 5831 5830 5829 5829 5828 5827 5826 5824 5822 5820 5819 5818 5816 5815 5813 5812 5810 5808 5807 5805 5804
5817 5819 5819 5820 5821 5821 5823 5823 5823 5824 5824 5824 5823 5823 5823 5823 5824 5824 5823 5823 5822 5822 5822 5820 5820 5820 5820 5819 5818 5817 5815 5813 5811 5810 5809 5808 5806 5805 5803 5801 5800 5799 5798 5796
5808 5810 5812 5812 5812 5813 5813 5814 5815 5815 5816 5816 5815 5815 5814 5815 5815 5815 5814 5814 5813 5813 5813 5812 5811 5811 5811 5810 5809 5808 5806 5805 5803 5802 5800 5799 5797 5796 5794 5792 5792 5791 5789 5788
5800 5802 5803 5803 5804 5804 5805 5805 5805 5806 5807 5807 5806 5806 5807 5807 5807 5806 5806 5806 5805 5805 5804 5803 5803 5803 5802 5801 5800 5799 5797 5796 5794 5793 5792 5790 5788 5787 5786 5784 5783 5782 5780 5779
5791 5792 5794 5795 5796 5796 5796 5796 5796 5797 5798 5798 5798 5798 5798 5798 5798 5798 5797 5797 5796 5796 5795 5794 5794 5794 5793 5792 5791 5790 5788 5786 5785 5784 5782 5781 5779 5778 5777 5776 5775 5773 5771 5770
5782 5784 5785 5786 5787 5787 5786 5787 5788 5788 5789 5789 5789 5789 5788 5788 5788 5788 5788 5788 5787 5787 5786 5786 5785 5784 5783 5783 5781 5780 5779 5777 5775 5774 5773 5772 5770 5769 5768 5767 5765 5764 5762 5761
5773 5774 5776 5777 5778 5778 5778 5779 5779 5779 5779 5779 5779 5779 5779 5779 5779 5779 5778 5778 5777 5776 5776 5776 5775 5775 5774 5773 5772 5770 5769 5768 5766 5764 5763 5762 5760 5759 5758 5756 5755 5754 5753 5752
5764 5766 5767 5768 5768 5769 5769 5770 5770 5770 5770 5770 5770 5769 5769 5769 5769 5769 5769 5768 5767 5767 5766 5766 5765 5764 5764 5763 5762 5760 5759 5758 5757 5755 5753 5752 5751 5750 5749 5748 5747 5745 5743 5742
5756 5758 5759 5759 5760 5760 5760 5760 5761 5761 5761 5761 5760 5760 5760 5760 5759 5759 5759 5758 5758 5757 5756 5755 5755 5754 5754 5753 5751 5750 5749 5748 5747 5745 5744 5742 5741 5740 5739 5738 5737 5736 5734 5733
5746 5748 5749 5749 5750 5751 5751 5750 5750 5751 5752 5752 5751 5751 5750 5750 5749 5749 5749 5749 5748 5747 5746 5746 5745 5744 5743 5742 5741 5740 5739 5738 5737 5735 5734 5733 5732 5730 5729 5728 5727 5725 5724 5724
5737 5738 5739 5739 5740 5741 5742 5742 5742 5742 5742 5742 5742 5741 5741 5740 5740 5740 5739 5739 5738 5738 5737 5736 5735 5734 5733 5732 5731 5730 5729 5728 5727 5725 5724 5723 5722 5721 5719 5718 5717 5716 5715 5714
5729 5729 5730 5731 5732 5732 5732 5733 5733 5733 5733 5733 5732 5732 5731 5731 5731 5730 5730 5729 5728 5728 5727 5726 5725 5724 5723 5722 5721 5720 5719 5718 5717 5716 5714 5713 5712 5711 5710 5709 5708 5707 5706 5705
5720 5721 5722 5722 5722 5722 5723 5723 5724 5724 5724 5724 5723 5723 5722 5722 5721 5721 5720 5720 5719 5718 5718 5716 5715 5714 5714 5713 5711 5710 5709 5708 5707 5706 5705 5704 5703 5702 5701 5700 5699 5698 5697 5696
5712 5713 5713 5713 5714 5714 5714 5714 5714 5715 5715 5715 5714 5714 5713 5713 5712 5711 5711 5710 5710 5709 5708 5707 5706 5705 5704 5703 5702 5701 5700 5698 5697 5696 5695 5695 5694 5693 5692 5691 5690 5689 5688 5688
5705 5705 5705 5705 5705 5706 5706 5705 5705 5705 5705 5705 5705 5704 5703 5703 5703 5702 5702 5701 5701 5700 5699 5698 5697 5696 5695 5694 5693 5692 5691 5690 5689 5688 5687 5686 5685 5684 5683 5682 5681 5680 5680 5679
5697 5697 5697 5697 5697 5697 5697 5697 5696 5696 5696 5696 5696 5695 5694 5694 5694 5693 5693 5693 5692 5691 5690 5690 5689 5688 5687 5686 5684 5683 5682 5681 5680 5680 5679 5678 5677 5676 5675 5674 5673 5672 5671 5671
5690 5690 5690 5689 5689 5689 5688 5688 5688 5688 5688 5687 5687 5687 5686 5686 5685 5685 5685 5684 5684 5683 5682 5681 5681 5680 5679 5677 5676 5675 5674 5673 5672 5671 5670 5670 5669 5668 5667 5666 5665 5664 5663 5662
5684 5683 5683 5683 5682 5681 5681 5680 5680 5680 5680 5679 5679 5678 5678 5678 5678 5678 5677 5677 5676 5675 5675 5674 5673 5672 5671 5670 5669 5668 5667 5665 5665 5664 5662 5662 5661 5660 5659 5659 5658 5656 5655 5654
5678 5677 5677 5676 5675 5675 5674 5673 5673 5673 5672 5672 5671 5671 5670 5670 5670 5670 5670 5669 5669 5668 5668 5667 5666 5665 5664 5662 5661 5660 5659 5658 5657 5656 5655 5654 5654 5653 5652 5651 5650 5649 5647 5646
5672 5671 5671 5670 5670 5669 5668 5667 5667 5666 5665 5665 5664 5664 5663 5663 5663 5663 5663 5662 5662 5661 5661 5660 5659 5658 5657 5656 5654 5653 5652 5651 5650 5649 5648 5648 5647 5646 5645 5644 5642 5641 5640 5638